[[{"header":{"parameterUnit":"m.s-1","parameterCategory":1,"la1":30.2991,"la2":30.254,"lo1":-89.0895,"lo2":-89.0444,"dy":0.0017,"dx":0.0017,"nx":28,"ny":28,"refTime":"2025-05-17T21:00:00:Z","depth":0,"parameterNumber":2,"parameterNumberName":"U-component_of_WINDS"},"data":[0,0,0,0,0,0,0,0,0,0,0,0,0,0,0,0,0,0,0,0,0,0,0,0,0,0,0,0,0,0,0,0,0,0,0,0,0,0,0,0,0,0,0,0,0,0,0,0,0,0,0,0,0,0,0,0,0,0,0.2109,0.211,0,0.2209,0.221,0.2211,0.2248,0.2247,0.2247,0.2247,0.2349,0.2352,0.2355,0,0,0,0,0,0,0,0,0,0,0,0,0,0.1952,0.1955,0.2109,0.211,0.2112,0.2208,0.221,0.2211,0.2248,0.2247,0.2247,0.2247,0.2348,0.2352,0.2356,0,0,0,0,0,0,0,0,0,0,0,0,0,0.2033,0.1956,0.2109,0.2141,0.2145,0.2208,0.221,0.2211,0.2248,0.2247,0.2247,0.2246,0.2347,0.2352,0.2356,0.2394,0,0,0.237,0.2372,0,0,0,0,0,0,0,0,0.2028,0.2039,0.2135,0.2139,0.2144,0.2215,0.2192,0.2273,0.2248,0.2209,0.2247,0.2246,0.2305,0.2313,0.2333,0.2399,0.2403,0.2371,0.2373,0.2375,0.2377,0,0,0,0,0,0,0,0.2023,0.2035,0.2148,0.2137,0.2142,0.2152,0.2163,0.2208,0.2259,0.2212,0.2215,0.2226,0.2307,0.2328,0.2336,0.2405,0.237,0.2374,0.2377,0.2379,0.2508,0.2509,0,0,0,0,0,0,0.2011,0.203,0.2145,0.2151,0.2084,0.2155,0.2167,0.2193,0.2258,0.2268,0.2227,0.2228,0.2321,0.233,0.2339,0.2389,0.2375,0.238,0.2382,0.2508,0.2508,0.2509,0,0,0,0,0,0,0.2008,0.2021,0.2141,0.2091,0.2107,0.2158,0.2187,0.2195,0.2216,0.2269,0.2279,0.2239,0.2321,0.2333,0.238,0.2393,0.2382,0.2386,0.2507,0.2508,0.2509,0.2488,0,0,0,0,0,0,0.2003,0.202,0.2034,0.2091,0.211,0.218,0.2187,0.2197,0.2224,0.2226,0.2283,0.2292,0.2321,0.2373,0.2385,0.2399,0.2389,0.2506,0.2507,0.2508,0.2488,0.2488,0.2488,0,0,0,0,0,0.1998,0.2024,0.2035,0.2049,0.2129,0.2181,0.2191,0.2225,0.2225,0.224,0.2274,0.229,0.239,0.2378,0.2391,0.2407,0.2505,0.2507,0.2508,0.2487,0.2488,0.2488,0,0,0,0,0,0,0.1967,0.2032,0.2045,0.2091,0.213,0.2187,0.2207,0.2224,0.2264,0.2264,0.2304,0.2317,0.2361,0.2389,0.2375,0.2448,0.2449,0.2453,0.2428,0.2429,0.2429,0.2422,0.2393,0,0,0,0,0,0.1966,0.2002,0.2057,0.2093,0.2112,0.2156,0.218,0.2202,0.2244,0.2261,0.2299,0.2339,0.238,0.2406,0.2446,0.2492,0.2505,0.2509,0.2509,0.251,0.2513,0.254,0.2543,0.2514,0.2514,0.2514,0,0,0.1964,0.2004,0.2024,0.2088,0.2121,0.2158,0.217,0.2208,0.2237,0.2267,0.2314,0.2343,0.2392,0.2438,0.2461,0.2463,0.2524,0.2512,0.2511,0.2515,0.2542,0.2545,0.2547,0.2515,0.2515,0.2515,0,0,0.1979,0.2012,0.2046,0.2079,0.2129,0.2158,0.2166,0.2221,0.2242,0.229,0.2314,0.2348,0.2417,0.2451,0.2477,0.2505,0.2522,0.2517,0.252,0.2546,0.2548,0.255,0.2561,0.2565,0.2521,0.2521,0.2521,0,0.197,0.2027,0.2061,0.2099,0.2127,0.2156,0.2191,0.2221,0.2282,0.23,0.2302,0.2389,0.2424,0.2479,0.2487,0.2506,0.2518,0.2511,0.2545,0.2547,0.255,0.2561,0.2565,0.252,0.252,0.252,0.252,0,0.2013,0.2053,0.2074,0.2132,0.2162,0.2198,0.2239,0.2265,0.2285,0.2314,0.2363,0.2406,0.2456,0.247,0.249,0.2529,0.2529,0.2537,0.2539,0.2551,0.2563,0.2567,0.2519,0.2519,0.2519,0.2519,0,0,0.2012,0.2089,0.2097,0.2124,0.2181,0.2213,0.225,0.2299,0.2321,0.2362,0.2396,0.2454,0.2462,0.2491,0.2515,0.2538,0.2559,0.2543,0.2545,0.2545,0.2606,0.26,0.2605,0.257,0.2571,0.2572,0.2603,0,0.2035,0.2104,0.2137,0.2191,0.2229,0.2258,0.2291,0.233,0.2359,0.2395,0.2427,0.2468,0.2475,0.2493,0.2517,0.2551,0.2572,0.255,0.2602,0.2604,0.259,0.2611,0.2604,0.2631,0.2607,0.2608,0.2608,0,0.2071,0.2112,0.2171,0.2225,0.2242,0.2271,0.2319,0.2353,0.2399,0.2418,0.2452,0.2475,0.2516,0.2515,0.2573,0.2557,0.2581,0.2601,0.2603,0.261,0.2607,0.2619,0.2641,0.2645,0.2615,0.2615,0.2614,0,0.2065,0.2135,0.218,0.2202,0.2266,0.2286,0.2314,0.2359,0.2387,0.2429,0.2447,0.2493,0.2519,0.2554,0.259,0.2585,0.2645,0.2646,0.2663,0.2662,0.2675,0.2674,0.2702,0.2689,0.2689,0.2689,0.2689,0,0.2088,0.2123,0.2178,0.2205,0.2246,0.2283,0.2322,0.2352,0.2392,0.2427,0.2454,0.2486,0.253,0.2567,0.2595,0.264,0.2651,0.2669,0.2676,0.2667,0.2665,0.2683,0.2682,0.269,0.269,0.2689,0.2689,0,0.2088,0.2126,0.2177,0.2234,0.2249,0.2277,0.2326,0.2354,0.2384,0.2427,0.2439,0.2487,0.2533,0.2571,0.2631,0.265,0.2697,0.2705,0.2681,0.2685,0.27,0.2698,0.2742,0.275,0.273,0.273,0.273,0,0.21,0.2128,0.2188,0.2213,0.2241,0.2281,0.2309,0.2348,0.2376,0.2431,0.2453,0.25,0.254,0.2612,0.2652,0.2698,0.2708,0.272,0.2715,0.2705,0.2709,0.2707,0.2711,0.272,0.272,0.272,0.272,0,0.2118,0.2136,0.2176,0.2224,0.2257,0.2296,0.2335,0.2354,0.24,0.2431,0.2478,0.2509,0.2571,0.2618,0.2669,0.2698,0.2717,0.2721,0.2728,0.2719,0.2705,0.2714,0.2683,0.272,0.272,0.272,0.272,0.272,0.2126,0.2152,0.2199,0.2243,0.2277,0.2314,0.2343,0.2378,0.2418,0.2471,0.2491,0.2539,0.2586,0.2656,0.2685,0.2724,0.2726,0.2736,0.2738,0.274,0.2739,0.2698,0.2733,0.2733,0.2733,0.2733,0.2733,0,0.2146,0.2178,0.2218,0.2273,0.2308,0.2323,0.2368,0.2396,0.2438,0.248,0.2519,0.2573,0.262,0.2664,0.2712,0.2735,0.2745,0.2746,0.2745,0.2752,0.2733,0.2723,0.2737,0.2737,0.2737,0.2737,0.2737,0.2737,0.216,0.2206,0.223,0.2293,0.2325,0.2373,0.2397,0.2432,0.2465,0.2525,0.2563,0.2592,0.2635,0.2687,0.273,0.2742,0.2759,0.2758,0.2772,0.2754,0.2753,0.2752,0.2743,0.2761,0.2761,0.2788,0.2789,0.2789]},{"header":{"parameterUnit":"m.s-1","parameterCategory":1,"la1":30.2991,"la2":30.254,"lo1":-89.0895,"lo2":-89.0444,"dy":0.0017,"dx":0.0017,"nx":28,"ny":28,"refTime":"2025-05-17T21:00:00:Z","depth":0,"parameterNumber":3,"parameterNumberName":"V-component_of_WINDS"},"data":[0,0,0,0,0,0,0,0,0,0,0,0,0,0,0,0,0,0,0,0,0,0,0,0,0,0,0,0,0,0,0,0,0,0,0,0,0,0,0,0,0,0,0,0,0,0,0,0,0,0,0,0,0,0,0,0,0,0,3.8955,3.8955,0,3.8918,3.8918,3.8918,3.8904,3.8904,3.8905,3.8905,3.8862,3.8861,3.886,0,0,0,0,0,0,0,0,0,0,0,0,0,3.901,3.9009,3.8955,3.8955,3.8954,3.8918,3.8918,3.8917,3.8904,3.8904,3.8905,3.8905,3.8862,3.8861,3.8859,0,0,0,0,0,0,0,0,0,0,0,0,0,3.8981,3.9009,3.8955,3.8943,3.8942,3.8919,3.8918,3.8917,3.8904,3.8904,3.8905,3.8905,3.8863,3.8861,3.8859,3.8843,0,0,3.8853,3.8853,0,0,0,0,0,0,0,0,3.8983,3.8979,3.8946,3.8944,3.8943,3.8916,3.8922,3.8892,3.8904,3.8918,3.8905,3.8905,3.888,3.8876,3.8869,3.8841,3.8839,3.8853,3.8852,3.8851,3.8851,0,0,0,0,0,0,0,3.8985,3.898,3.894,3.8945,3.8943,3.8939,3.8935,3.8916,3.8898,3.8917,3.8916,3.8912,3.8879,3.8871,3.8868,3.8839,3.8853,3.8852,3.885,3.885,3.8798,3.8798,0,0,0,0,0,0,3.8989,3.8982,3.8942,3.8939,3.8964,3.8938,3.8933,3.8924,3.8898,3.8895,3.8912,3.8912,3.8874,3.887,3.8866,3.8847,3.8851,3.885,3.8848,3.8798,3.8798,3.8798,0,0,0,0,0,0,3.8991,3.8986,3.8943,3.8961,3.8955,3.8937,3.8927,3.8924,3.8916,3.8895,3.8891,3.8907,3.8874,3.8869,3.885,3.8845,3.8849,3.8847,3.8799,3.8798,3.8798,3.8808,0,0,0,0,0,0,3.8992,3.8986,3.8981,3.8961,3.8954,3.8928,3.8926,3.8923,3.8913,3.8912,3.8889,3.8885,3.8874,3.8853,3.8848,3.8843,3.8845,3.8799,3.8798,3.8798,3.8808,3.8808,3.8808,0,0,0,0,0,3.8994,3.8983,3.898,3.8976,3.8947,3.8928,3.8924,3.8912,3.8913,3.8906,3.8893,3.8886,3.8847,3.8851,3.8845,3.8839,3.8799,3.8799,3.8798,3.8808,3.8808,3.8808,0,0,0,0,0,0,3.9001,3.898,3.8977,3.896,3.8946,3.8926,3.8918,3.8912,3.8897,3.8896,3.8881,3.8876,3.8858,3.8847,3.8852,3.8823,3.8822,3.8821,3.8832,3.8831,3.8831,3.8834,3.8844,0,0,0,0,0,3.9001,3.8989,3.8971,3.8957,3.8951,3.8936,3.8927,3.8919,3.8904,3.8897,3.8883,3.8867,3.8851,3.884,3.8824,3.8806,3.8801,3.8799,3.8799,3.88,3.8798,3.8789,3.8788,3.8796,3.8796,3.8796,0,0,3.9,3.8987,3.898,3.8958,3.8947,3.8934,3.8931,3.8916,3.8906,3.8894,3.8877,3.8865,3.8847,3.8828,3.8819,3.8818,3.8795,3.8799,3.8799,3.8798,3.8788,3.8788,3.8787,3.8796,3.8796,3.8796,0,0,3.8991,3.898,3.8968,3.8958,3.8941,3.8932,3.8929,3.891,3.8903,3.8885,3.8877,3.8864,3.8837,3.8824,3.8814,3.8804,3.8797,3.8799,3.8799,3.879,3.879,3.8789,3.8786,3.8785,3.8798,3.8798,3.8798,0,3.8991,3.8972,3.8962,3.895,3.8941,3.8932,3.892,3.8909,3.8888,3.8881,3.8881,3.8848,3.8835,3.8814,3.8812,3.8804,3.88,3.8801,3.8791,3.879,3.8789,3.8786,3.8785,3.8798,3.8798,3.8798,3.8798,0,3.8974,3.8961,3.8953,3.8936,3.8926,3.8913,3.8901,3.8892,3.8886,3.8876,3.8858,3.8842,3.8824,3.8819,3.8811,3.8797,3.8797,3.8794,3.8793,3.8789,3.8786,3.8785,3.8799,3.8799,3.8799,3.8798,0,0,3.8966,3.8946,3.8943,3.8936,3.8918,3.8907,3.8895,3.8879,3.8872,3.8858,3.8847,3.8825,3.8823,3.8812,3.8803,3.8796,3.879,3.8793,3.8793,3.8794,3.8775,3.8778,3.8776,3.8786,3.8785,3.8785,3.8777,0,3.8956,3.8935,3.8926,3.8908,3.8897,3.889,3.8879,3.8867,3.8858,3.8846,3.8835,3.8821,3.8818,3.8812,3.8804,3.8792,3.8786,3.8793,3.8775,3.8774,3.878,3.8775,3.8777,3.877,3.8775,3.8775,3.8775,0,3.894,3.8929,3.8911,3.8897,3.8891,3.8882,3.8868,3.8857,3.8843,3.8837,3.8826,3.8819,3.8805,3.8805,3.8786,3.8791,3.8783,3.8777,3.8776,3.8773,3.8774,3.8772,3.8767,3.8766,3.8773,3.8773,3.8773,0,3.8938,3.8917,3.8905,3.8898,3.8881,3.8875,3.8867,3.8854,3.8846,3.8833,3.8827,3.8812,3.8804,3.8793,3.8781,3.8782,3.8764,3.8763,3.8758,3.8758,3.8754,3.8754,3.8747,3.8749,3.8749,3.8749,3.8749,0,3.8927,3.8916,3.8904,3.8895,3.8884,3.8874,3.8862,3.8854,3.8842,3.8832,3.8824,3.8815,3.8801,3.8789,3.878,3.8766,3.8762,3.8757,3.8754,3.8758,3.8758,3.8752,3.8752,3.8748,3.8749,3.8749,3.8749,0,3.8921,3.8913,3.8898,3.8884,3.8881,3.8873,3.886,3.8852,3.8844,3.8831,3.8828,3.8814,3.88,3.8789,3.877,3.8764,3.875,3.8747,3.8755,3.8754,3.875,3.8751,3.8739,3.8737,3.874,3.874,3.874,0,3.8915,3.8907,3.8893,3.8887,3.888,3.8869,3.8862,3.8852,3.8844,3.883,3.8823,3.881,3.8798,3.8777,3.8765,3.8751,3.8747,3.8744,3.8745,3.8749,3.8748,3.8749,3.8748,3.8744,3.8744,3.8744,3.8744,0,3.8904,3.8901,3.8891,3.888,3.8872,3.8862,3.8852,3.8847,3.8836,3.8828,3.8815,3.8807,3.8789,3.8776,3.8761,3.8752,3.8746,3.8745,3.8743,3.8746,3.8751,3.8749,3.8755,3.8744,3.8744,3.8744,3.8744,3.8744,3.8898,3.8891,3.8882,3.8871,3.8863,3.8855,3.8847,3.8839,3.8829,3.8816,3.881,3.8798,3.8785,3.8766,3.8757,3.8747,3.8745,3.8743,3.8742,3.8742,3.8743,3.8754,3.8744,3.8744,3.8744,3.8744,3.8744,0,3.8888,3.8882,3.8872,3.886,3.8852,3.885,3.884,3.8833,3.8822,3.8812,3.8802,3.8788,3.8776,3.8764,3.8751,3.8745,3.8742,3.8742,3.8742,3.8741,3.8744,3.8747,3.8745,3.8745,3.8745,3.8745,3.8745,3.8745,3.8881,3.887,3.8866,3.8852,3.8845,3.8834,3.8829,3.8821,3.8813,3.8799,3.879,3.8783,3.8772,3.8759,3.8748,3.8744,3.874,3.8741,3.8737,3.874,3.874,3.874,3.8743,3.874,3.874,3.8734,3.8734,3.8734]}]]